Weather observations for the past three days for
Alamogordo-White
Imperial (Metric)
Date Time (mdt) Wind (mph) Vis. (mi.) Weather Sky Cond. Temperature (ºF) Relative Humidity Wind Chill (°F) Heat Index (°F) Pressure Precipitation (in)
Air Dwpt 6 hour altimeter (in) sea level (mb) 1 hr 3 hr 6 hr
Max. Min.
13 01:15 S 8 10.00 A Few Clouds FEW050 80.6 41 24% 79 30 0.0
13 00:55 S 9 10.00 A Few Clouds FEW048 FEW055 80.6 41 24% 79 30 0.0
13 00:35 S 10 10.00 Fair CLR 80.6 41 24% 79 30 0.0
13 00:15 S 10 10.00 Fair CLR 80.6 41 24% 79 30 0.0
12 23:55 S 7 10.00 Fair CLR 77 35.6 22% 77 30 0.0
12 23:35 S 6 10.00 Fair CLR 78.8 32 18% 78 30.01 0.0
12 23:15 Calm 10.00 Fair CLR 80.6 30.2 16% 79 30 0.0
12 22:55 S 3 10.00 Fair CLR 80.6 30.2 16% 79 30.01 0.0
12 22:35 E 5 10.00 Fair CLR 82.4 32 16% 80 30 0.0
12 22:15 E 5 10.00 Fair CLR 80.6 33.8 18% 79 30 0.0
12 21:55 E 8 10.00 Fair CLR 84.2 32 15% 81 29.99 0.0
12 21:35 E 6 10.00 Fair CLR 86 32 14% 83 29.99 0.0
12 21:15 SE 6 10.00 Fair CLR 84.2 33.8 16% 81 29.99 0.0
12 20:55 S 3 10.00 Fair CLR 87.8 32 13% 84 29.98 0.0
12 20:35 Calm 10.00 Fair CLR 89.6 32 13% 86 29.98 0.0
12 20:15 Calm 10.00 NULL NULL 93.2 32 11% 89 29.98 0.0
12 19:35 Calm 10.00 Fair CLR 98.6 32 10% 93 29.98 0.0
12 19:15 NW 6 10.00 Fair CLR 100.4 32 9% 95 29.98 0.0
12 18:55 W 7 10.00 Fair CLR 100.4 32 9% 95 29.98 0.0
12 18:35 NW 8 10.00 Fair CLR 100.4 32 9% 95 29.98 0.0
12 18:15 NE 7 G 14 10.00 Fair CLR 100.4 32 9% 95 29.98 0.0
12 17:55 N 9 10.00 Fair CLR 100.4 32 9% 95 29.99 0.0
12 17:35 N 9 10.00 Fair CLR 102.2 32 9% 97 29.99 0.0
12 17:15 Vrbl 3 10.00 Fair CLR 100.4 32 9% 95 29.99 0.0
12 16:55 NW 15 10.00 Fair CLR 100.4 32 9% 95 30 0.0
12 16:35 W 5 G 17 10.00 Fair CLR 102.2 30.2 8% 96 30.01 0.0
12 16:15 NW 6 10.00 Fair CLR 100.4 30.2 8% 95 30.02 0.0
12 15:55 Calm 10.00 Fair CLR 100.4 35.6 10% 95 30.03 0.0
12 15:35 W 9 G 18 10.00 Fair CLR 100.4 35.6 10% 95 30.03 0.0
12 15:15 Calm 10.00 Fair CLR 98.6 39.2 13% 94 30.04 0.0
12 14:55 Vrbl 5 G 12 10.00 Fair CLR 98.6 41 14% 94 30.05 0.0
12 14:35 NW 8 10.00 Fair CLR 98.6 42.8 15% 94 30.06 0.0
12 14:15 Vrbl 3 G 12 10.00 Fair CLR 96.8 42.8 16% 93 30.07 0.0
12 13:55 Vrbl 6 10.00 Fair CLR 95 44.6 18% 91 30.08 0.0
12 13:35 Vrbl 5 G 12 10.00 Fair CLR 95 44.6 18% 91 30.09 0.0
12 13:15 W 8 10.00 Fair CLR 91.4 42.8 18% 88 30.1 0.0
12 12:55 Vrbl 5 G 15 10.00 Fair CLR 87.8 41 19% 84 30.11 0.0
12 12:35 Vrbl 5 G 12 10.00 Fair CLR 91.4 48.2 23% 88 30.12 0.0
12 12:15 Vrbl 5 10.00 Fair CLR 89.6 50 26% 87 30.13 0.0
12 11:35 S 7 10.00 Fair CLR 89.6 53.6 29% 87 30.14 0.0
12 11:15 W 6 10.00 Fair CLR 87.8 51.8 29% 85 30.14 0.0
12 10:55 SE 8 10.00 Fair CLR 86 50 29% 84 30.15 0.0
12 10:35 Calm 10.00 Fair CLR 80.6 46.4 30% 80 30.15 0.0
12 10:15 Calm 10.00 Fair CLR 82.4 50 32% 81 30.15 0.0
12 09:55 Calm 10.00 Fair CLR 84.2 50 31% 82 30.15 0.0
12 09:35 Calm 10.00 Fair CLR 82.4 50 32% 81 30.16 0.0
12 09:15 SE 3 10.00 Fair CLR 80.6 51.8 37% 80 30.16 0.0
12 08:55 S 5 10.00 Fair CLR 78.8 51.8 39% 79 30.16 0.0
12 08:35 Calm 10.00 Fair CLR 78.8 50 37% 79 30.15 0.0
12 08:15 N 3 10.00 Fair CLR 77 48.2 36% 78 30.15 0.0
12 07:55 N 5 10.00 Fair CLR 75.2 48.2 39% 77 30.14 0.0
12 07:35 Calm 10.00 Fair CLR 73.4 46.4 38% 30.13 0.0
12 07:15 Calm 10.00 Fair CLR 69.8 44.6 40% 30.12 0.0
12 06:55 Calm 10.00 Fair CLR 66.2 42.8 43% 30.12 0.0
12 06:35 S 3 10.00 Fair CLR 64.4 42.8 46% 30.11 0.0
12 06:15 Calm 10.00 Fair CLR 64.4 42.8 46% 30.1 0.0
12 05:55 S 7 10.00 Fair CLR 62.6 42.8 49% 30.1 0.0
12 05:35 W 5 10.00 Fair CLR 69.8 42.8 38% 30.09 0.0
12 05:15 NE 8 10.00 Fair CLR 69.8 42.8 38% 30.08 0.0
12 04:55 NE 5 10.00 Fair CLR 69.8 42.8 38% 30.08 0.0
12 04:35 Calm 10.00 Fair CLR 69.8 42.8 38% 30.08 0.0
12 04:15 Calm 10.00 Fair CLR 75.2 44.6 34% 77 30.07 0.0
12 03:55 Calm 10.00 Fair CLR 71.6 44.6 38% 30.07 0.0
12 03:35 Calm 10.00 Fair CLR 73.4 44.6 36% 30.06 0.0
12 03:15 E 5 10.00 Fair CLR 73.4 44.6 36% 30.06 0.0
12 02:55 SE 5 10.00 Fair CLR 73.4 44.6 36% 30.06 0.0
12 02:35 Calm 10.00 Fair CLR 75.2 44.6 34% 77 30.06 0.0
12 02:15 SE 5 10.00 Fair CLR 73.4 42.8 33% 30.05 0.0
12 01:55 SE 6 10.00 Fair CLR 71.6 42.8 36% 30.05 0.0
12 01:35 SE 6 10.00 Fair CLR 71.6 42.8 36% 30.05 0.0
12 01:15 W 6 10.00 Fair CLR 75.2 41 29% 77 30.04 0.0
12 00:55 W 9 10.00 Fair CLR 80.6 41 24% 79 30.04 0.0
12 00:35 W 10 10.00 Fair CLR 82.4 41 23% 80 30.03 0.0
12 00:15 E 8 G 14 10.00 Fair CLR 84.2 41 22% 82 30.03 0.0
11 23:55 E 15 10.00 Fair CLR 86 41 20% 83 30.02 0.0
11 23:35 E 14 10.00 Fair CLR 84.2 42.8 23% 82 30.02 0.0
11 23:15 E 15 10.00 Fair CLR 84.2 44.6 25% 82 30.02 0.0
11 22:55 E 15 G 23 10.00 Fair CLR 86 44.6 24% 83 30.02 0.0
11 22:35 E 8 G 17 10.00 Fair CLR 86 42.8 22% 83 30.02 0.0
11 22:15 NE 8 10.00 Fair CLR 82.4 39.2 21% 80 30.01 0.0
11 21:55 Calm 10.00 Fair CLR 82.4 33.8 17% 80 30 0.0
11 21:35 Calm 10.00 Fair CLR 80.6 35.6 20% 79 29.99 0.0
11 21:15 Calm 10.00 Fair CLR 84.2 33.8 16% 81 29.98 0.0
11 20:55 SE 6 10.00 Fair CLR 84.2 35.6 18% 81 29.98 0.0
11 20:35 E 7 10.00 Fair CLR 84.2 30.2 14% 81 29.97 0.0
11 20:15 Calm 10.00 Fair CLR 86 32 14% 83 29.97 0.0
11 19:55 Calm 10.00 Fair CLR 91.4 32 12% 87 29.96 0.0
11 19:35 W 3 10.00 Fair CLR 95 30.2 10% 90 29.96 0.0
11 19:15 Vrbl 6 10.00 Fair CLR 95 32 11% 90 29.96 0.0
11 18:55 W 7 10.00 Fair CLR 96.8 32 10% 92 29.95 0.0
11 18:35 W 10 10.00 Fair CLR 96.8 32 10% 92 29.94 0.0
11 18:15 W 9 10.00 Fair CLR 96.8 33.8 11% 92 29.94 0.0
11 17:55 W 10 10.00 Fair CLR 96.8 33.8 11% 92 29.94 0.0
11 17:35 W 8 G 16 10.00 Fair CLR 96.8 35.6 12% 92 29.94 0.0
11 17:15 NW 10 G 17 10.00 Fair CLR 96.8 35.6 12% 92 29.95 0.0
11 16:55 W 10 G 22 10.00 Fair CLR 96.8 35.6 12% 92 29.95 0.0
11 16:35 W 9 G 17 10.00 Fair CLR 96.8 35.6 12% 92 29.96 0.0
11 16:15 W 14 G 22 10.00 Fair CLR 96.8 35.6 12% 92 29.96 0.0
11 15:55 W 13 G 21 10.00 Fair CLR 96.8 37.4 13% 92 29.97 0.0
11 15:35 NW 8 G 16 10.00 Fair CLR 96.8 37.4 13% 92 29.98 0.0
11 15:15 NW 14 G 21 10.00 Fair CLR 96.8 37.4 13% 92 29.99 0.0
11 14:55 W 12 G 17 10.00 Fair CLR 93.2 35.6 13% 89 30 0.0
11 14:35 N 10 G 16 10.00 Fair CLR 95 37.4 13% 90 30.01 0.0
11 14:15 Vrbl 6 G 18 10.00 Fair CLR 95 37.4 13% 90 30.01 0.0
11 13:55 Vrbl 6 G 18 10.00 Fair CLR 93.2 39.2 15% 89 30.02 0.0
11 13:35 W 7 G 15 10.00 Fair CLR 93.2 39.2 15% 89 30.03 0.0
11 13:15 Vrbl 7 10.00 Fair CLR 89.6 37.4 16% 86 30.04 0.0
11 12:55 W 7 G 17 10.00 Fair CLR 87.8 37.4 17% 84 30.04 0.0
11 12:35 NW 8 G 17 10.00 Fair CLR 89.6 37.4 16% 86 30.05 0.0
11 12:15 Vrbl 7 10.00 Fair CLR 84.2 35.6 18% 81 30.06 0.0
11 11:55 N 9 10.00 Fair CLR 87.8 39.2 18% 84 30.06 0.0
11 11:35 W 6 G 15 10.00 Fair CLR 87.8 41 19% 84 30.07 0.0
11 11:15 Calm 10.00 Fair CLR 87.8 41 19% 84 30.07 0.0
11 10:55 Vrbl 3 8.00 Fair CLR 86 41 20% 83 30.08 0.0
11 10:35 Calm 10.00 Fair CLR 84.2 42.8 23% 82 30.08 0.0
11 10:15 Vrbl 3 10.00 Fair CLR 82.4 42.8 25% 80 30.09 0.0
11 09:55 Calm 10.00 Fair CLR 80.6 42.8 26% 79 30.09 0.0
11 09:35 Calm 10.00 Fair CLR 80.6 42.8 26% 79 30.09 0.0
11 09:15 Calm 10.00 Fair CLR 78.8 42.8 28% 78 30.09 0.0
11 08:55 Calm 10.00 Fair CLR 77 42.8 30% 78 30.09 0.0
11 08:35 Calm 10.00 Fair CLR 75.2 41 29% 77 30.09 0.0
11 08:15 Calm 10.00 Fair CLR 73.4 41 31% 30.08 0.0
11 07:55 Calm 10.00 Fair CLR 71.6 41 33% 30.08 0.0
11 07:35 Calm 10.00 Fair CLR 69.8 39.2 33% 30.08 0.0
11 07:15 N 5 10.00 Fair CLR 68 39.2 35% 30.08 0.0
11 06:55 Calm 10.00 Fair CLR 66.2 39.2 37% 30.07 0.0
11 06:35 Calm 10.00 Fair CLR 64.4 39.2 40% 30.07 0.0
11 06:15 Calm 10.00 Fair CLR 62.6 39.2 42% 30.06 0.0
11 05:55 S 6 10.00 Fair CLR 62.6 39.2 42% 30.05 0.0
11 05:35 SE 6 10.00 Fair CLR 60.8 39.2 45% 30.04 0.0
11 05:15 SE 5 10.00 Fair CLR 62.6 39.2 42% 30.04 0.0
11 04:55 SE 5 10.00 A Few Clouds FEW038 FEW044 64.4 39.2 40% 30.04 0.0
11 04:35 SE 5 10.00 A Few Clouds FEW044 FEW050 64.4 39.2 40% 30.04 0.0
11 04:15 E 5 10.00 A Few Clouds FEW042 64.4 39.2 40% 30.04 0.0
11 03:55 SE 3 10.00 Fair CLR 64.4 39.2 40% 30.03 0.0
11 03:35 SE 5 10.00 A Few Clouds FEW042 FEW050 66.2 39.2 37% 30.03 0.0
11 03:15 SE 6 10.00 A Few Clouds FEW050 64.4 39.2 40% 30.02 0.0
11 02:55 Calm 10.00 A Few Clouds FEW045 FEW055 66.2 39.2 37% 30.03 0.0
11 02:35 Calm 10.00 Fair CLR 66.2 39.2 37% 30.03 0.0
11 02:15 SE 6 10.00 Fair CLR 64.4 39.2 40% 30.03 0.0
11 01:55 SE 7 10.00 Fair CLR 68 39.2 35% 30.03 0.0
11 01:35 Calm 10.00 Fair CLR 71.6 39.2 31% 30.03 0.0
11 01:15 Calm 10.00 Fair CLR 71.6 39.2 31% 30.03 0.0
11 00:55 N 5 10.00 A Few Clouds FEW047 73.4 37.4 27% 30.03 0.0
11 00:35 NW 7 9.00 A Few Clouds FEW046 75.2 39.2 27% 77 30.03 0.0
11 00:15 N 6 10.00 Fair CLR 77 39.2 26% 77 30.03 0.0
10 23:55 N 6 10.00 Partly Cloudy SCT070 78.8 39.2 24% 78 30.04 0.0
10 23:35 N 7 10.00 Overcast SCT060 OVC070 77 39.2 26% 77 30.05 0.0
10 23:15 N 9 4.00 Overcast with Haze OVC055 78.8 39.2 24% 78 30.05 0.0
10 22:55 N 9 6.00 Mostly Cloudy with Haze BKN050 BKN120 78.8 39.2 24% 78 30.05 0.0
10 22:35 NE 8 10.00 Fair CLR 77 39.2 26% 77 30.05 0.0
10 22:15 NE 8 10.00 Fair CLR 77 39.2 26% 77 30.05 0.0
10 21:55 NE 8 10.00 Fair CLR 75.2 39.2 27% 77 30.04 0.0
10 21:35 NE 8 10.00 Partly Cloudy SCT060 75.2 39.2 27% 77 30.04 0.0
10 21:15 N 9 10.00 Partly Cloudy SCT060 77 39.2 26% 77 30.03 0.0
10 20:55 N 8 10.00 A Few Clouds FEW060 78.8 39.2 24% 78 30.03 0.0
10 20:35 N 8 G 15 10.00 Fair CLR 78.8 39.2 24% 78 30.03 0.0
10 20:15 N 9 G 16 10.00 Fair CLR 80.6 39.2 23% 79 30.02 0.0
10 19:55 N 15 G 22 10.00 Fair CLR 80.6 39.2 23% 79 30.02 0.0
10 19:35 NE 13 G 22 10.00 Fair CLR 82.4 39.2 21% 80 30.01 0.0
10 19:15 N 15 G 23 10.00 Fair CLR 80.6 39.2 23% 79 30.01 0.0
10 18:55 N 17 G 24 10.00 Fair CLR 80.6 39.2 23% 79 30.01 0.0
10 18:35 N 17 10.00 Fair CLR 82.4 39.2 21% 80 30.02 0.0
10 18:15 N 18 G 26 10.00 Fair CLR 82.4 41 23% 80 30.02 0.0
10 17:55 N 20 G 25 10.00 Fair CLR 82.4 39.2 21% 80 30.01 0.0
10 17:35 N 23 10.00 Fair and Breezy CLR 84.2 39.2 20% 81 30.01 0.0
10 17:15 N 22 9.00 Fair and Breezy CLR 84.2 41 22% 82 30 0.0
10 16:55 N 20 G 28 10.00 Fair CLR 86 41 20% 83 30.01 0.0
10 16:35 N 21 G 26 10.00 Fair and Breezy CLR 86 41 20% 83 30.01 0.0
10 16:15 N 15 G 22 10.00 Fair CLR 84.2 42.8 23% 82 30.02 0.0
10 15:55 N 16 G 23 10.00 Fair CLR 84.2 42.8 23% 82 30.02 0.0
10 15:35 N 20 G 26 10.00 Fair CLR 84.2 42.8 23% 82 30.02 0.0
10 15:15 N 20 G 28 9.00 Fair CLR 86 42.8 22% 83 30.02 0.0
10 14:55 N 13 G 20 10.00 Fair CLR 86 42.8 22% 83 30.02 0.0
10 14:35 N 9 G 20 10.00 Fair CLR 84.2 42.8 23% 82 30.03 0.0
10 14:15 N 16 G 28 10.00 Fair CLR 87.8 42.8 21% 84 30.04 0.0
10 13:55 N 14 G 23 10.00 Fair CLR 87.8 44.6 22% 85 30.04 0.0
10 13:35 NW 21 10.00 A Few Clouds and Breezy FEW080 FEW090 86 44.6 24% 83 30.04 0.0
10 13:15 NW 13 10.00 Partly Cloudy SCT080 86 44.6 24% 83 30.05 0.0
10 12:55 Calm 10.00 Fair CLR 84.2 44.6 25% 82 30.06 0.0
10 12:35 NW 6 G 13 10.00 Fair CLR 84.2 44.6 25% 82 30.07 0.0
10 12:15 NW 8 G 17 10.00 Fair CLR 84.2 44.6 25% 82 30.08 0.0
10 11:55 NW 10 G 17 10.00 Fair CLR 84.2 46.4 27% 82 30.08 0.0
10 11:35 Vrbl 7 10.00 Fair CLR 82.4 46.4 28% 81 30.08 0.0
10 11:15 Vrbl 7 10.00 Fair CLR 82.4 46.4 28% 81 30.09 0.0
10 10:55 Calm 10.00 Fair CLR 80.6 46.4 30% 80 30.1 0.0
10 10:35 Vrbl 5 10.00 Fair CLR 78.8 48.2 34% 79 30.1 0.0
10 10:15 Vrbl 5 10.00 Fair CLR 78.8 48.2 34% 79 30.11 0.0
10 09:55 Vrbl 5 10.00 Fair CLR 77 48.2 36% 78 30.11 0.0
10 09:35 Vrbl 5 G 13 10.00 Fair CLR 77 48.2 36% 78 30.12 0.0
10 09:15 Vrbl 5 10.00 Fair CLR 75.2 48.2 39% 77 30.12 0.0
10 08:55 Vrbl 5 G 12 10.00 Fair CLR 73.4 46.4 38% 30.13 0.0
10 08:35 E 8 10.00 Fair CLR 73.4 46.4 38% 30.13 0.0
10 08:15 SE 8 10.00 Fair CLR 71.6 50 47% 30.12 0.0
10 07:55 SE 8 10.00 Fair CLR 69.8 51.8 53% 30.12 0.0
10 07:35 E 7 10.00 Fair CLR 68 51.8 56% 30.11 0.0
10 07:15 SE 8 10.00 Fair CLR 66.2 51.8 60% 30.1 0.0
10 06:55 SE 7 10.00 Fair CLR 64.4 51.8 64% 30.1 0.0
10 06:35 SE 7 10.00 Fair CLR 62.6 51.8 68% 30.09 0.0
10 06:15 S 5 10.00 Fair CLR 62.6 51.8 68% 30.09 0.0
10 05:55 S 7 10.00 Fair CLR 62.6 51.8 68% 30.09 0.0
10 05:35 S 9 10.00 Fair CLR 62.6 51.8 68% 30.08 0.0
10 05:15 SE 5 10.00 Fair CLR 60.8 42.8 52% 30.08 0.0
10 04:55 Calm 10.00 A Few Clouds FEW026 62.6 48.2 60% 30.07 0.0
10 04:35 Vrbl 5 10.00 A Few Clouds FEW027 FEW035 FEW042 66.2 48.2 52% 30.06 0.0
10 04:15 Calm 10.00 Partly Cloudy FEW035 FEW042 SCT047 64.4 44.6 49% 30.05 0.0
10 03:55 SW 7 10.00 Fair CLR 66.2 46.4 49% 30.04 0.0
10 03:35 NW 7 10.00 A Few Clouds FEW032 FEW041 FEW050 64.4 39.2 40% 30.05 0.0
10 03:15 S 9 10.00 Fair CLR 68 41 38% 30.04 0.0
10 02:55 W 8 10.00 Fair CLR 69.8 39.2 33% 30.04 0.0
10 02:35 SE 15 10.00 Fair CLR 69.8 37.4 31% 30.03 0.0
10 02:15 SE 12 10.00 Fair CLR 64.4 33.8 32% 30.03 0.0
10 01:55 S 10 10.00 Fair CLR 64.4 33.8 32% 30.04 0.0
10 01:35 SE 12 10.00 Fair CLR 66.2 35.6 32% 30.04 0.0
Date Time (mdt) Wind (mph) Vis. (mi.) Weather Sky Cond. Air Dwpt Max. Min. Relative Humidity Wind Chill (°F) Heat Index (°F) altimeter (in) sea level (mb) 1 hr 3 hr 6 hr
6 hour
Temperature (ºF) Pressure Precipitation (in)